| time (UTC) | temp F | wind direction | speed MPH | gust MPH | rain 1hr in | rain 24hr in | rain mn in | humidity % | barometer mb |
| 20260903173645 | 90 | 74 | 3.0 | 7.0 | 0.00 | 0.00 | 0.00 | 65 | 1011.8 |
| 20260903172706 | 90 | 47 | 3.0 | 7.0 | 0.00 | 0.00 | 0.00 | 64 | 1011.9 |
| 20260903171706 | 90 | 113 | 2.0 | 6.0 | 0.00 | 0.00 | 0.00 | 65 | 1012.0 |
| 20260903170655 | 90 | 93 | 2.0 | 7.0 | 0.00 | 0.00 | 0.00 | 65 | 1012.1 |
| 20260903165644 | 89 | 176 | 3.0 | 7.0 | 0.00 | 0.00 | 0.00 | 68 | 1012.0 |
| 20260903164618 | 89 | 173 | 4.0 | 7.0 | 0.00 | 0.00 | 0.00 | 69 | 1011.8 |
| 20260903163631 | 88 | 124 | 5.0 | 12.0 | 0.00 | 0.00 | 0.00 | 69 | 1011.9 |
| 20260903162655 | 88 | 179 | 5.0 | 12.0 | 0.00 | 0.00 | 0.00 | 71 | 1011.8 |
| 20260903161654 | 87 | 147 | 5.0 | 12.0 | 0.00 | 0.00 | 0.00 | 73 | 1011.8 |
| 20260903160628 | 86 | 123 | 6.0 | 12.0 | 0.00 | 0.00 | 0.00 | 73 | 1011.9 |
| 20260903155607 | 85 | 161 | 6.0 | 12.0 | 0.00 | 0.00 | 0.00 | 74 | 1011.9 |
| 20260903154554 | 85 | 138 | 5.0 | 9.0 | 0.00 | 0.00 | 0.00 | 76 | 1011.8 |
| 20260903153543 | 84 | 186 | 5.0 | 14.0 | 0.00 | 0.00 | 0.00 | 77 | 1011.7 |
| 20260903152553 | 84 | 164 | 7.0 | 14.0 | 0.00 | 0.00 | 0.00 | 78 | 1011.7 |
| 20260903151551 | 83 | 162 | 5.0 | 13.0 | 0.00 | 0.00 | 0.00 | 79 | 1011.6 |
| 20260903145333 | 82 | 170 | 6.0 | 15.0 | 0.00 | 0.00 | 0.00 | 81 | 1011.6 |
| 20260903144355 | 82 | 141 | 5.0 | 12.0 | 0.00 | 0.00 | 0.00 | 83 | 1011.7 |
| 20260903143332 | 81 | 161 | 5.0 | 11.0 | 0.00 | 0.00 | 0.00 | 85 | 1011.8 |
| 20260903142323 | 81 | 167 | 6.0 | 12.0 | 0.00 | 0.00 | 0.00 | 85 | 1011.7 |
| 20260903141339 | 81 | 161 | 5.0 | 12.0 | 0.00 | 0.00 | 0.00 | 86 | 1011.5 |
| 20260903135218 | 80 | 132 | 4.0 | 9.0 | 0.00 | 0.00 | 0.00 | 89 | 1011.8 |
| 20260903134225 | 79 | 161 | 2.0 | 7.0 | 0.00 | 0.00 | 0.00 | 90 | 1011.8 |
| 20260903133206 | 79 | 124 | 2.0 | 7.0 | 0.00 | 0.00 | 0.00 | 91 | 1011.8 |
| 20260903132222 | 78 | 138 | 2.0 | 5.0 | 0.00 | 0.00 | 0.00 | 91 | 1011.9 |
| 20260903131159 | 78 | 148 | 2.0 | 7.0 | 0.00 | 0.00 | 0.00 | 91 | 1011.8 |
| 20260903130145 | 78 | 175 | 2.0 | 7.0 | 0.00 | 0.00 | 0.00 | 91 | 1011.8 |
| 20260903125143 | 78 | 138 | 2.0 | 7.0 | 0.00 | 0.00 | 0.00 | 91 | 1011.5 |
| 20260903124118 | 78 | 122 | 2.0 | 7.0 | 0.00 | 0.00 | 0.00 | 91 | 1011.5 |
| 20260903123117 | 78 | 175 | 2.0 | 6.0 | 0.00 | 0.00 | 0.00 | 91 | 1011.5 |
| 20260903122103 | 78 | 124 | 2.0 | 6.0 | 0.00 | 0.00 | 0.00 | 91 | 1011.4 |
| 20260903121106 | 78 | 134 | 2.0 | 8.0 | 0.00 | 0.00 | 0.00 | 91 | 1011.3 |
| 20260903120043 | 78 | 91 | 4.0 | 8.0 | 0.00 | 0.00 | 0.00 | 91 | 1011.2 |
| 20260903113951 | 78 | 155 | 3.0 | 8.0 | 0.00 | 0.00 | 0.00 | 91 | 1011.1 |
| 20260903112923 | 78 | 129 | 4.0 | 8.0 | 0.00 | 0.00 | 0.00 | 91 | 1011.1 |
| 20260903110712 | 78 | 146 | 4.0 | 11.0 | 0.00 | 0.00 | 0.00 | 90 | 1011.1 |
| 20260903105721 | 78 | 100 | 4.0 | 11.0 | 0.00 | 0.00 | 0.00 | 90 | 1011.1 |
| 20260903104719 | 78 | 163 | 4.0 | 9.0 | 0.00 | 0.00 | 0.00 | 90 | 1010.9 |
| 20260903103736 | 78 | 127 | 4.0 | 10.0 | 0.00 | 0.00 | 0.00 | 90 | 1010.8 |
| 20260903102740 | 78 | 164 | 4.0 | 10.0 | 0.00 | 0.00 | 0.00 | 90 | 1010.8 |
| 20260903101758 | 78 | 97 | 4.0 | 8.0 | 0.00 | 0.00 | 0.00 | 89 | 1010.7 |
| 20260903100806 | 78 | 157 | 4.0 | 10.0 | 0.00 | 0.00 | 0.00 | 89 | 1010.8 |
| 20260903095750 | 78 | 153 | 4.0 | 10.0 | 0.00 | 0.00 | 0.00 | 89 | 1010.8 |
| 20260903093632 | 79 | 155 | 4.0 | 9.0 | 0.00 | 0.00 | 0.00 | 88 | 1011.0 |
| 20260903091456 | 79 | 71 | 3.0 | 11.0 | 0.00 | 0.00 | 0.00 | 87 | 1011.1 |
| 20260903090425 | 79 | 135 | 5.0 | 11.0 | 0.00 | 0.00 | 0.00 | 86 | 1011.2 |
| 20260903085438 | 79 | 167 | 4.0 | 12.0 | 0.00 | 0.00 | 0.00 | 86 | 1011.2 |
| 20260903084422 | 79 | 121 | 4.0 | 12.0 | 0.00 | 0.00 | 0.00 | 85 | 1011.2 |
| 20260903083408 | 79 | 79 | 3.0 | 9.0 | 0.00 | 0.00 | 0.00 | 84 | 1011.2 |
| 20260903081233 | 80 | 154 | 3.0 | 7.0 | 0.00 | 0.00 | 0.00 | 83 | 1011.3 |
| 20260903080228 | 80 | 115 | 1.0 | 9.0 | 0.00 | 0.00 | 0.00 | 82 | 1011.3 |
| 20260903075250 | 80 | 139 | 2.0 | 9.0 | 0.00 | 0.00 | 0.00 | 82 | 1011.3 |
| 20260903074245 | 80 | 140 | 2.0 | 5.0 | 0.00 | 0.00 | 0.00 | 81 | 1011.4 |
| 20260903073303 | 80 | 105 | 3.0 | 7.0 | 0.00 | 0.00 | 0.00 | 81 | 1011.4 |
| 20260903072317 | 80 | 143 | 3.0 | 7.0 | 0.00 | 0.00 | 0.00 | 81 | 1011.4 |
| 20260903071341 | 79 | 110 | 3.0 | 7.0 | 0.00 | 0.00 | 0.00 | 81 | 1011.5 |
| 20260903070316 | 79 | 118 | 2.0 | 7.0 | 0.00 | 0.00 | 0.00 | 82 | 1011.5 |
| 20260903065339 | 79 | 130 | 1.0 | 5.0 | 0.00 | 0.00 | 0.00 | 82 | 1011.6 |
| 20260903064343 | 79 | 92 | 1.0 | 5.0 | 0.00 | 0.00 | 0.00 | 82 | 1011.6 |
| 20260903063350 | 79 | 105 | 1.0 | 5.0 | 0.00 | 0.00 | 0.00 | 82 | 1011.7 |
| 20260903062358 | 79 | 114 | 2.0 | 5.0 | 0.00 | 0.00 | 0.00 | 82 | 1011.8 |
| 20260903061419 | 80 | 113 | 2.0 | 5.0 | 0.00 | 0.00 | 0.00 | 82 | 1011.8 |
| 20260903060410 | 80 | 104 | 1.0 | 7.0 | 0.00 | 0.00 | 0.00 | 81 | 1011.9 |
| 20260903055338 | 80 | 96 | 2.0 | 7.0 | 0.00 | 0.00 | 0.00 | 80 | 1011.9 |
| 20260903054339 | 80 | 101 | 3.0 | 7.0 | 0.00 | 0.00 | 0.00 | 80 | 1011.9 |
| 20260903053357 | 81 | 59 | 3.0 | 8.0 | 0.00 | 0.00 | 0.00 | 79 | 1012.0 |
| 20260903052329 | 81 | 88 | 3.0 | 8.0 | 0.00 | 0.00 | 0.00 | 78 | 1012.0 |
| 20260903050231 | 81 | 94 | 2.0 | 7.0 | 0.00 | 0.00 | 0.00 | 76 | 1011.8 |
| 20260903045204 | 82 | 49 | 2.0 | 7.0 | 0.00 | 0.00 | 0.00 | 76 | 1011.7 |
| 20260903044212 | 82 | 68 | 2.0 | 11.0 | 0.00 | 0.00 | 0.00 | 75 | 1011.7 |
| 20260903043212 | 83 | 64 | 4.0 | 11.0 | 0.00 | 0.00 | 0.00 | 75 | 1011.7 |
| 20260903042151 | 83 | 69 | 4.0 | 9.0 | 0.00 | 0.00 | 0.00 | 75 | 1011.9 |
| 20260903041213 | 83 | 38 | 4.0 | 12.0 | 0.00 | 0.00 | 0.00 | 75 | 1011.9 |
| 20260903040234 | 83 | 51 | 4.0 | 12.0 | 0.00 | 0.00 | 0.00 | 74 | 1011.8 |
| 20260903035228 | 84 | 66 | 3.0 | 8.0 | 0.00 | 0.00 | 0.00 | 70 | 1011.8 |
| 20260903034217 | 84 | 28 | 2.0 | 7.0 | 0.00 | 0.00 | 0.00 | 68 | 1011.6 |
| 20260903033145 | 85 | 11 | 2.0 | 7.0 | 0.00 | 0.00 | 0.00 | 67 | 1011.5 |
| 20260903032207 | 85 | 59 | 2.0 | 6.0 | 0.00 | 0.00 | 0.00 | 66 | 1011.5 |
| 20260903031214 | 85 | 32 | 3.0 | 6.0 | 0.00 | 0.00 | 0.00 | 66 | 1011.4 |
| 20260903030217 | 85 | 5 | 2.0 | 6.0 | 0.00 | 0.00 | 0.00 | 67 | 1011.3 |
| 20260903025223 | 85 | 12 | 0.0 | 6.0 | 0.00 | 0.00 | 0.00 | 67 | 1011.2 |
| 20260903024233 | 86 | 202 | 0.0 | 1.0 | 0.00 | 0.00 | 0.00 | 66 | 1010.7 |
| 20260903023233 | 86 | 202 | 0.0 | 0.0 | 0.00 | 0.00 | 0.00 | 65 | 1010.6 |
| 20260903021107 | 87 | 202 | 0.0 | 3.0 | 0.00 | 0.00 | 0.00 | 63 | 1010.3 |
| 20260903013819 | 88 | 202 | 0.0 | 2.0 | 0.00 | 0.00 | 0.00 | 61 | 1009.8 |
| 20260903012821 | 89 | 202 | 0.0 | 3.0 | 0.00 | 0.00 | 0.00 | 61 | 1010.0 |
| 20260903011823 | 89 | 202 | 0.0 | 1.0 | 0.00 | 0.00 | 0.00 | 61 | 1009.8 |
| 20260903010818 | 90 | 202 | 0.0 | 1.0 | 0.00 | 0.00 | 0.00 | 60 | 1009.9 |
| 20260903005838 | 91 | 202 | 0.0 | 1.0 | 0.00 | 0.00 | 0.00 | 60 | 1009.8 |
| 20260903004812 | 91 | 202 | 0.0 | 1.0 | 0.00 | 0.00 | 0.00 | 59 | 1009.8 |
| 20260903003744 | 92 | 202 | 0.0 | 0.0 | 0.00 | 0.00 | 0.00 | 58 | 1009.9 |
| 20260903002740 | 93 | 202 | 0.0 | 3.0 | 0.00 | 0.00 | 0.00 | 58 | 1009.9 |
| 20260903001707 | 93 | 202 | 0.0 | 1.0 | 0.00 | 0.00 | 0.00 | 57 | 1009.8 |
| 20260903000703 | 95 | 202 | 0.0 | 3.0 | 0.00 | 0.00 | 0.00 | 55 | 1009.9 |
| 20260902235653 | 96 | 202 | 0.0 | 0.0 | 0.00 | 0.00 | 0.00 | 52 | 1009.9 |
| 20260902233519 | 95 | 197 | 1.0 | 5.0 | 0.00 | 0.00 | 0.00 | 54 | 1009.9 |
| 20260902232522 | 94 | 216 | 2.0 | 5.0 | 0.00 | 0.00 | 0.00 | 55 | 1009.9 |
| 20260902231513 | 95 | 249 | 2.0 | 5.0 | 0.00 | 0.00 | 0.00 | 55 | 1009.9 |
| 20260902230511 | 95 | 151 | 0.0 | 1.0 | 0.00 | 0.00 | 0.00 | 55 | 1009.9 |
| 20260902225442 | 94 | 151 | 0.0 | 1.0 | 0.00 | 0.00 | 0.00 | 56 | 1009.7 |
| 20260902224422 | 94 | 151 | 0.0 | 1.0 | 0.00 | 0.00 | 0.00 | 55 | 1009.7 |
| 20260902223356 | 95 | 151 | 1.0 | 4.0 | 0.00 | 0.00 | 0.00 | 54 | 1009.7 |
| 20260902222416 | 96 | 68 | 0.0 | 4.0 | 0.00 | 0.00 | 0.00 | 48 | 1009.7 |
| 20260902220312 | 96 | 18 | 2.0 | 9.0 | 0.00 | 0.00 | 0.00 | 50 | 1009.9 |
| 20260902215337 | 97 | 331 | 3.0 | 9.0 | 0.00 | 0.00 | 0.00 | 48 | 1009.9 |
| 20260902214339 | 97 | 209 | 2.0 | 6.0 | 0.00 | 0.00 | 0.00 | 47 | 1010.1 |
| 20260902213355 | 97 | 286 | 2.0 | 6.0 | 0.00 | 0.00 | 0.00 | 48 | 1010.1 |
| 20260902212409 | 97 | 319 | 1.0 | 6.0 | 0.00 | 0.00 | 0.00 | 50 | 1010.2 |
| 20260902211401 | 96 | 346 | 1.0 | 4.0 | 0.00 | 0.00 | 0.00 | 48 | 1010.1 |
| 20260902210337 | 96 | 346 | 1.0 | 4.0 | 0.00 | 0.00 | 0.00 | 48 | 1010.2 |
| 20260902205355 | 96 | 355 | 1.0 | 4.0 | 0.00 | 0.00 | 0.00 | 49 | 1010.3 |
| 20260902204414 | 95 | 355 | 1.0 | 4.0 | 0.00 | 0.00 | 0.00 | 51 | 1010.5 |
| 20260902203414 | 95 | 344 | 1.0 | 5.0 | 0.00 | 0.00 | 0.00 | 51 | 1010.7 |
| 20260902202429 | 95 | 277 | 1.0 | 5.0 | 0.00 | 0.00 | 0.00 | 51 | 1010.9 |
| 20260902195132 | 95 | 355 | 1.0 | 4.0 | 0.00 | 0.00 | 0.00 | 53 | 1011.3 |
| 20260902194108 | 95 | 346 | 1.0 | 6.0 | 0.00 | 0.00 | 0.00 | 53 | 1011.4 |
| 20260902193040 | 94 | 327 | 2.0 | 6.0 | 0.00 | 0.00 | 0.00 | 53 | 1011.6 |
| 20260902192023 | 93 | 337 | 3.0 | 6.0 | 0.00 | 0.00 | 0.00 | 54 | 1011.7 |
| 20260902185826 | 95 | 161 | 1.0 | 9.0 | 0.00 | 0.00 | 0.00 | 51 | 1011.9 |
| 20260902184808 | 95 | 309 | 3.0 | 9.0 | 0.00 | 0.00 | 0.00 | 52 | 1012.0 |
| 20260902183809 | 95 | 229 | 3.0 | 9.0 | 0.00 | 0.00 | 0.00 | 53 | 1012.2 |
| 20260902181627 | 95 | 76 | 4.0 | 8.0 | 0.00 | 0.00 | 0.00 | 53 | 1012.4 |
| 20260902180647 | 94 | 140 | 3.0 | 8.0 | 0.00 | 0.00 | 0.00 | 54 | 1012.7 |
| 20260902175711 | 95 | 100 | 2.0 | 9.0 | 0.00 | 0.00 | 0.00 | 53 | 1013.0 |